Retour au catalogue

PEGASUS DEB

ActifPO
NORAD 24227·DEBRIS·🇺🇸 United States

Lancé May 19, 1994 depuis Vandenberg Space Force Base

Loading…

Prochains Passages (prochaines 24 heures)

TLE

FraisSource: Space-Track

Époque: Sep 14, 2026, 05:56 UTC

1 24227U 94029LA  26257.24728199  .00001002  00000-0  11912-3 0  9995
2 24227  82.0427 353.1067 0134860 348.8695  40.0498 14.77099704614905

Suivez PEGASUS DEB en temps réel avec AllMySat

Download on the App Store